User: anonymous   Login
Location: La Comballaz
(46.3780°N, 7.0817°E)
Time: 02:20:28
(UTC+00:00)
Language:

EO-79 - Orbit

View from above orbital plane
View from above orbital plane
View from above satellite
View from above satellite

Ground track
Ground track

The orbit data is extracted from the following two-line orbital elements,

1 40025U 14033R   22343.49421906  .00003239  00000-0  32938-3 0  9996
2 40025  97.9778 282.4797 0011141 194.1427 165.9480 14.91453892459844
Epoch (UTC): 09 December 2022 11:51:40
Eccentricity: 0.0011141
inclination: 97.9778°
perigee height: 585 km
apogee height: 601 km
right ascension of ascending node: 282.4797°
argument of perigee: 194.1427°
revolutions per day: 14.91453892
mean anomaly at epoch: 165.9480°
orbit number at epoch: 45984

The dashed part of the orbit path shows where the satellite is in the earth's shadow,  

DLR